This is the latest recevied weather packets stored in our database for station/object WX0ABE-13. If no packets are shown the sender has not sent any weather packets the latest 10 day(s).
| Time | Temp. | Humidity | Pressure | Rain* | Wind** | Luminosity | Snow |
|---|---|---|---|---|---|---|---|
| 1788288594 | 25.56° C | 54% | 1017.7 hPa | 0 mm | - | 310 W/m² | - |
| 1788288290 | 25° C | 55% | 1017.7 hPa | 0 mm | - | 883 W/m² | - |
| 1788287985 | 25° C | 55% | 1017.8 hPa | 0 mm | - | 360 W/m² | - |
| 1788287685 | 24.44° C | 59% | 1018.1 hPa | 0 mm | - | 641 W/m² | - |
| 1788287381 | 24.44° C | 60% | 1018 hPa | 0 mm | - | 563 W/m² | - |
| 1788287077 | 23.89° C | 62% | 1018 hPa | 0 mm | - | 509 W/m² | - |
| 1788286771 | 23.89° C | 63% | 1018.2 hPa | 0 mm | - | 451 W/m² | - |
| 1788286466 | 23.33° C | 65% | 1018.3 hPa | 0 mm | - | 361 W/m² | - |
| 1788286165 | 23.89° C | 66% | 1018.1 hPa | 0 mm | - | 251 W/m² | - |
| 1788285864 | 24.44° C | 64% | 1018.1 hPa | 0 mm | - | 263 W/m² | - |
| 1788285562 | 23.89° C | 66% | 1018 hPa | 0 mm | - | 264 W/m² | - |
| 1788285258 | 23.33° C | 66% | 1018 hPa | 0 mm | - | 276 W/m² | - |
| 1788284953 | 23.33° C | 68% | 1018.3 hPa | 0 mm | - | 287 W/m² | - |
| 1788284648 | 22.78° C | 70% | 1018.4 hPa | 0 mm | - | 266 W/m² | - |
| 1788284344 | 22.78° C | 70% | 1018.3 hPa | 0 mm | - | 294 W/m² | - |
| 1788284039 | 22.78° C | 71% | 1018.2 hPa | 0 mm | - | 272 W/m² | - |
| 1788283735 | 22.78° C | 70% | 1018.2 hPa | 0 mm | - | 276 W/m² | - |
| 1788283435 | 22.78° C | 70% | 1018.3 hPa | 0 mm | - | 239 W/m² | - |
| 1788283133 | 22.22° C | 72% | 1018.5 hPa | 0 mm | - | 246 W/m² | - |
| 1788282832 | 22.22° C | 72% | 1018.3 hPa | 0 mm | - | 246 W/m² | - |
| 1788282531 | 21.67° C | 74% | 1018.6 hPa | 0 mm | - | 191 W/m² | - |
| 1788282226 | 22.22° C | 74% | 1018.9 hPa | 0 mm | - | 174 W/m² | - |
| 1788281926 | 22.22° C | 74% | 1018.5 hPa | 0 mm | - | 157 W/m² | - |
| 1788281620 | 22.22° C | 73% | 1018.5 hPa | 0 mm | - | 159 W/m² | - |
| 1788281317 | 22.22° C | 73% | 1018.5 hPa | 0 mm | - | 182 W/m² | - |
* Rain latest hour (hover to see other rain measurements)
** Current wind speed in m/s (hover to see current wind gust speed)